CZ-4 DEB, 26142

Orbit data source: Space-Track

CZ-4 DEB, 26142 is space debris in SSO originally from a launch on Thu, 14 Oct 1999 UTC launched from the Taiyaun Space Center, China (TSC). Debris objects in space refer to the collection of defunct objects orbiting the Earth. Examples of debris include non-operational satellites, rocket bodies, and fragments generated from explosions, collisions, or faulty payload assembly.

Loading next visibility...
Identifier
26142, 1999-057AE
Orbit
SSO
Country
Flag of CNCN / PRC
Related business
Manufacturer
Unknown
Mission
Spacecraft
Bus & Motor
Unknown
Mass
Unknown
Launch date (UTC)
1999-10-14 (26 years ago)
Launch vehicle
Unknown
Launch site
Taiyaun Space Center, China (TSC)
Object type
Payload
Rocket body
Debris
Shape & HBR
Unknown
Radar Cross Section
Small (<0.1 m²)

Expand to show TLE details & history
Last TLE update: 14 hours ago

TLE from 14 hours ago
0 CZ-4 DEB
1 26142U 99057AE  25260.68595663  .00000345  00000-0  22920-3 0  9998
2 26142  98.7558 154.2333 0297866 162.7464 266.8376 13.87454326286623
Epoch: 2025-09-17T16:27Z
TLE epoch observation values (Epoch: 2025-09-17T16:27:46.652Z)
Latitude
64.80232°
Longitude
-108.57366°
Altitude
967.178 km
Speed
7.365 km/s
True Right ascension
09h 00m 54s
True Declination
64° 40' 24"
Sunlit
Object was in daylight at epoch
Visualization orbit readout
Latitude
Unknown
Longitude
Unknown
Altitude
Unknown
Speed
Unknown
Apparent Right ascension
Unknown
Apparent Declination
Unknown
Sunlit
N/A
Visualization observer readout
Local Sidereal Time
23:21:23
Azimuth
Unknown
Elevation
Unknown
Doppler factor
Unknown
Orbital elements
Apogee altitude
1,152.593 km
Perigee altitude
716.94 km
Semi-major axis
7,312.903 km
Eccentricity
0.02979
Inclination
98.7558°
RAAN
154.2333°
Arg. of periapsis
162.7464°
True anomaly
263.43849°
Mean anomaly
266.8376°
Eccentric anomaly
265.1371°
Mean motion
3.47063 °/min
Orbital period
103.73 mins
BSTAR
0.0002292
Loading maneuver chart data...
Computing Atmospheric mass density...
Loading historical data...
Loading historical data...
Loading historical data...
Loading historical data...
Loading historical data...
Loading historical data...
Loading historical data...

Documentation

Showing up to 5 results
|